Weather History for Exeter, United Kingdom

Change the Weather History Date:

Monday, October 8, 2012

  Actual Average Record
Temperature  
Mean Temperature 58 °F -  
Max Temperature 62 °F 56 °F 69 °F (2010)
Min Temperature 55 °F 43 °F 37 °F (2004)
Degree Days  
Heating Degree Days 6    
Growing Degree Days 8 (Base 50)    
Moisture  
Dew Point 58 °F    
Average Humidity 97    
Maximum Humidity 100    
Minimum Humidity 88    
Precipitation  
Precipitation 0.04 in - - ()
Sea Level Pressure  
Sea Level Pressure 29.88 in    
Wind  
Wind Speed 7 mph ()    
Max Wind Speed 14 mph    
Max Gust Speed -    
Visibility 3.1 miles    
Events Rain    
Averages and records for this station are not official NWS values.
T = Trace of Precipitation, MM = Missing Value Source: Averaged Metar Reports

Daily Weather History Graph

Daily Weather History Graph

Search for Another Location

Airport:

Trip Planner

Search our weather history database for the weather conditions in past years. The results will help you decide how hot, cold, wet, or windy it might be!

Date:

Astronomy

Oct. 08, 2012 Rise Set
Actual Time 7:25 AM BST 6:35 PM BST
Civil Twilight 6:52 AM BST 7:08 PM BST
Nautical Twilight 6:14 AM BST 7:46 PM BST
Astronomical Twilight 5:36 AM BST 8:24 PM BST
Moon No Moon Rise 2:55 PM BST (10/8)
Length of Visible Light 12h 15m
Length of Day
11h 10m
Waning Gibbous, 48% of the Moon is Illuminated
Oct 8
Waning Gibbous
Oct 15
New
Oct 22
First Quarter
Oct 29
Full
Nov 7
Last Quarter

Hourly Weather History & Observations

Time (BST) Temp. Dew Point Humidity Pressure Visibility Wind Dir Wind Speed Gust Speed Precip Events Conditions
12:50 AM 56 °F 54 °F 89%  in - ESE 13.8 mph - -  
3:50 AM 57 °F 57 °F 100%  in - ESE 12.7 mph - -  
4:20 AM 57.2 °F 57.2 °F 100% 29.92 in 3.7 mi ESE 13.8 mph - N/A Rain Light Rain
4:50 AM 57.2 °F 57.2 °F 100% 29.92 in 3.7 mi ESE 12.7 mph - N/A Rain Light Rain
6:20 AM 57.2 °F 57.2 °F 100% 29.89 in 2.5 mi East 12.7 mph - N/A   Drizzle
6:50 AM 58 °F 58 °F 100%  in - ESE 10.4 mph - -  
6:50 AM 57.2 °F 57.2 °F 100% 29.86 in 2.8 mi East 10.4 mph - N/A   Light Drizzle
7:20 AM 59.0 °F 57.2 °F 94% 29.86 in 2.8 mi East 11.5 mph - N/A   Light Drizzle
7:50 AM 59.0 °F 57.2 °F 94% 29.86 in 5.0 mi East 6.9 mph - N/A   Mostly Cloudy
8:20 AM 59.0 °F 57.2 °F 94% 29.86 in 1.6 mi East 9.2 mph - N/A   Light Drizzle
8:50 AM 59.0 °F 57.2 °F 94% 29.86 in 1.6 mi ENE 6.9 mph - N/A   Drizzle
9:20 AM 59.0 °F 59.0 °F 100% 29.86 in 1.6 mi Variable 3.5 mph - N/A   Light Drizzle
9:50 AM 60 °F 60 °F 100%  in - ESE 5.8 mph - -  
9:50 AM 59.0 °F 59.0 °F 100% 29.86 in 2.5 mi East 5.8 mph - N/A   Mostly Cloudy
10:20 AM 60.8 °F 59.0 °F 94% 29.86 in 2.5 mi Variable 3.5 mph - N/A   Light Drizzle
10:50 AM 60.8 °F 59.0 °F 94% 29.86 in 1.2 mi Variable 2.3 mph - N/A   Light Drizzle
11:20 AM 60.8 °F 59.0 °F 94% 29.86 in 1.2 mi North 3.5 mph - N/A   Light Drizzle
11:50 AM 60.8 °F 60.8 °F 100% 29.86 in 2.2 mi North 5.8 mph - N/A   Light Drizzle
12:20 PM 60.8 °F 59.0 °F 94% 29.86 in 2.5 mi Variable 3.5 mph - N/A   Light Drizzle
12:50 PM 60 °F 60 °F 100%  in - NE 3.5 mph - -  
12:50 PM 60.8 °F 59.0 °F 94% 29.86 in 2.5 mi Variable 3.5 mph - N/A   Mostly Cloudy
1:20 PM 60.8 °F 60.8 °F 100% 29.86 in 2.5 mi Variable 2.3 mph - N/A   Mostly Cloudy
1:50 PM 60.8 °F 60.8 °F 100% 29.86 in 2.5 mi NW 4.6 mph - N/A   Mostly Cloudy
2:20 PM 60.8 °F 59.0 °F 94% 29.86 in 1.9 mi North 4.6 mph - N/A   Mostly Cloudy
2:50 PM 60.8 °F 60.8 °F 100% 29.86 in 2.5 mi NNE 4.6 mph - N/A   Mostly Cloudy
3:20 PM 60.8 °F 60.8 °F 100% 29.86 in 4.3 mi Variable 3.5 mph - N/A   Mostly Cloudy
3:50 PM 62 °F 62 °F 98%  in - NNE 3.5 mph - -  
3:50 PM 62.6 °F 60.8 °F 94% 29.86 in 5.6 mi Variable 3.5 mph - N/A   Mostly Cloudy
4:20 PM 62.6 °F 60.8 °F 94% 29.83 in 5.0 mi North 4.6 mph - N/A   Mostly Cloudy
4:50 PM 62.6 °F 59.0 °F 88% 29.86 in 6.2 mi NNE 5.8 mph - N/A   Mostly Cloudy
5:20 PM 60.8 °F 59.0 °F 94% 29.86 in 6.2 mi NNE 4.6 mph - N/A   Mostly Cloudy
5:50 PM 60.8 °F 59.0 °F 94% 29.86 in 3.7 mi North 5.8 mph - N/A   Mostly Cloudy
6:20 PM 59.0 °F 57.2 °F 94% 29.86 in 2.5 mi NNE 8.1 mph - N/A   Light Drizzle
6:50 PM 56 °F 56 °F 100%  in - NE 8.1 mph - -  
6:50 PM 57.2 °F 55.4 °F 94% 29.86 in 2.8 mi NNE 9.2 mph - N/A   Light Drizzle
7:20 PM 57.2 °F 55.4 °F 94% 29.89 in 3.1 mi NNE 6.9 mph - N/A   Mostly Cloudy
7:50 PM 57.2 °F 55.4 °F 94% 29.89 in 3.1 mi NNE 6.9 mph - N/A   Light Drizzle
8:20 PM 55.4 °F 55.4 °F 100% 29.89 in 3.1 mi North 6.9 mph - N/A   Mostly Cloudy
8:50 PM 55.4 °F 55.4 °F 100% 29.89 in 3.1 mi North 5.8 mph - N/A   Light Drizzle
9:20 PM 55.4 °F 55.4 °F 100% 29.89 in 3.1 mi North 4.6 mph - N/A   Light Drizzle
9:50 PM 55 °F 55 °F 100%  in - NNE 3.5 mph - -  
9:50 PM 55.4 °F 55.4 °F 100% 29.92 in 3.1 mi North 4.6 mph - N/A   Light Drizzle
10:20 PM 55.4 °F 53.6 °F 94% 29.92 in 3.1 mi North 5.8 mph - N/A   Mostly Cloudy
10:50 PM 55.4 °F 53.6 °F 94% 29.92 in 3.1 mi North 5.8 mph - N/A   Mostly Cloudy
11:20 PM 55.4 °F 53.6 °F 94% 29.92 in 3.1 mi North 5.8 mph - N/A   Mostly Cloudy
11:50 PM 55.4 °F 53.6 °F 94% 29.92 in 3.1 mi Variable 3.5 mph - N/A   Scattered Clouds